Weather History for Budapest Ferihegy, Hungary

Change the Weather History Date:

Wednesday, March 21, 2012

  Actual Average Record
Temperature  
Mean Temperature 46 °F -  
Max Temperature 66 °F 56 °F 69 °F (2014)
Min Temperature 26 °F 36 °F 17 °F (2005)
Degree Days  
Heating Degree Days 19    
Moisture  
Dew Point 27 °F    
Average Humidity 48    
Maximum Humidity 80    
Minimum Humidity 26    
Precipitation  
Precipitation 0.00 in - - ()
Sea Level Pressure  
Sea Level Pressure 30.50 in    
Wind  
Wind Speed 4 mph ()    
Max Wind Speed 13 mph    
Max Gust Speed -    
Averages and records for this station are not official NWS values.
T = Trace of Precipitation, MM = Missing Value Source: Averaged Metar Reports

Daily Weather History Graph

Daily Weather History Graph

Search for Another Location

Airport:

Trip Planner

Search our weather history database for the weather conditions in past years. The results will help you decide how hot, cold, wet, or windy it might be!

Date:

Astronomy

Mar. 21, 2012 Rise Set
Actual Time 5:43 AM CET 5:57 PM CET
Civil Twilight 5:12 AM CET 6:28 PM CET
Nautical Twilight 4:36 AM CET 7:04 PM CET
Astronomical Twilight 3:59 AM CET 7:41 PM CET
Moon 4:48 AM CET (3/21) 5:06 PM CET (3/21)
Length of Visible Light 13h 15m
Length of Day
12h 13m
Waning Crescent, 1% of the Moon is Illuminated
Mar 21
Waning Crescent
Mar 22
New
Mar 30
First Quarter
Apr 6
Full
Apr 13
Last Quarter

Hourly Weather History & Observations

Time (CET) Temp. Windchill Dew Point Humidity Pressure Visibility Wind Dir Wind Speed Gust Speed Precip Events Conditions
12:00 AM 33.8 °F 29.6 °F 23.0 °F 65% 30.54 in - NNW 4.6 mph - N/A   Clear
12:30 AM 35.6 °F - 24.8 °F 65% 30.54 in - Variable 1.2 mph - N/A   Clear
1:00 AM 33.8 °F - 24.8 °F 70% 30.54 in - Calm Calm - N/A   Clear
1:30 AM 32.0 °F 27.5 °F 21.2 °F 64% 30.54 in - West 4.6 mph - N/A   Clear
2:00 AM 33.8 °F - 23.0 °F 65% 30.54 in - Variable 1.2 mph - N/A   Clear
2:30 AM 30.2 °F - 21.2 °F 69% 30.54 in - Variable 1.2 mph - N/A   Clear
3:00 AM 30.2 °F - 21.2 °F 69% 30.54 in - Variable 2.3 mph - N/A   Clear
3:30 AM 30.2 °F - 23.0 °F 75% 30.54 in - Variable 1.2 mph - N/A   Clear
4:00 AM 26.6 °F - 19.4 °F 74% 30.54 in - Variable 2.3 mph - N/A   Clear
4:30 AM 28.4 °F 23.3 °F 21.2 °F 74% 30.54 in - ENE 4.6 mph - N/A   Clear
5:00 AM 30.2 °F - 23.0 °F 75% 30.54 in - Variable 2.3 mph - N/A   Clear
5:30 AM 26.6 °F - 21.2 °F 80% 30.54 in - Variable 2.3 mph - N/A   Clear
6:00 AM 26.6 °F - 21.2 °F 80% 30.54 in - Variable 1.2 mph - N/A   Clear
6:30 AM 30.2 °F - 21.2 °F 69% 30.54 in - Variable 2.3 mph - N/A   Clear
7:00 AM 33.8 °F - 26.6 °F 75% 30.54 in - Variable 1.2 mph - N/A   Clear
7:30 AM 42.8 °F - 28.4 °F 57% 30.54 in - Variable 1.2 mph - N/A   Clear
8:00 AM 44.6 °F - 26.6 °F 49% 30.57 in - Variable 2.3 mph - N/A   Clear
8:30 AM 48.2 °F - 28.4 °F 46% 30.57 in - SW 4.6 mph - N/A   Clear
9:00 AM 51.8 °F - 28.4 °F 41% 30.57 in - Variable 3.5 mph - N/A   Clear
9:30 AM 55.4 °F - 26.6 °F 33% 30.54 in - Variable 2.3 mph - N/A   Clear
10:00 AM 57.2 °F - 26.6 °F 31% 30.54 in - Variable 1.2 mph - N/A   Clear
10:30 AM 59.0 °F - 26.6 °F 29% 30.54 in - WSW 5.8 mph - N/A   Clear
11:00 AM 60.8 °F - 26.6 °F 27% 30.54 in - WNW 8.1 mph - N/A   Clear
11:30 AM 60.8 °F - 26.6 °F 27% 30.54 in - West 8.1 mph - N/A   Clear
12:00 PM 62.6 °F - 26.6 °F 26% 30.51 in - West 8.1 mph - N/A   Clear
12:30 PM 64.4 °F - 30.2 °F 28% 30.51 in - WNW 9.2 mph - N/A   Clear
1:00 PM 64.4 °F - 30.2 °F 28% 30.51 in - WNW 9.2 mph - N/A   Clear
1:30 PM 64.4 °F - 30.2 °F 28% 30.48 in - West 11.5 mph - N/A   Clear
2:00 PM 66.2 °F - 30.2 °F 26% 30.48 in - WNW 12.7 mph - N/A   Clear
2:30 PM 64.4 °F - 28.4 °F 26% 30.48 in - WNW 11.5 mph - N/A   Clear
3:00 PM 66.2 °F - 30.2 °F 26% 30.45 in - WNW 11.5 mph - N/A   Clear
3:30 PM 66.2 °F - 30.2 °F 26% 30.45 in - NW 10.4 mph - N/A   Clear
4:00 PM 66.2 °F - 32.0 °F 28% 30.45 in - West 9.2 mph - N/A   Clear
4:30 PM 66.2 °F - 32.0 °F 28% 30.45 in - WNW 10.4 mph - N/A   Clear
5:00 PM 64.4 °F - 30.2 °F 28% 30.45 in - WNW 12.7 mph - N/A   Clear
5:30 PM 62.6 °F - 30.2 °F 30% 30.45 in - WNW 10.4 mph - N/A   Clear
6:00 PM 59.0 °F - 30.2 °F 34% 30.45 in - WNW 10.4 mph - N/A   Clear
6:30 PM 59.0 °F - 30.2 °F 34% 30.45 in - West 9.2 mph - N/A   Clear
7:00 PM 57.2 °F - 28.4 °F 33% 30.45 in - West 6.9 mph - N/A   Clear
7:30 PM 55.4 °F - 30.2 °F 38% 30.45 in - West 8.1 mph - N/A   Clear
8:00 PM 51.8 °F - 30.2 °F 44% 30.45 in - West 5.8 mph - N/A   Clear
8:30 PM 53.6 °F - 30.2 °F 41% 30.45 in - West 6.9 mph - N/A   Clear
9:00 PM 44.6 °F 42.2 °F 28.4 °F 53% 30.48 in - NW 4.6 mph - N/A   Clear
9:30 PM 44.6 °F 40.7 °F 30.2 °F 57% 30.45 in - WNW 6.9 mph - N/A   Clear
10:00 PM 50.0 °F - 32.0 °F 50% 30.45 in - WNW 9.2 mph - N/A   Clear
10:30 PM 46.4 °F 45.2 °F 30.2 °F 53% 30.45 in - Variable 3.5 mph - N/A   Clear
11:00 PM 44.6 °F - 30.2 °F 57% 30.45 in - Variable 1.2 mph - N/A   Clear
11:30 PM 41.0 °F 39.0 °F 28.4 °F 61% 30.45 in - Variable 3.5 mph - N/A   Clear